Home   Weather   Banja Luka   Past weeks

Flag for Bosnia-Herzegovina Past Weather in Banja Luka, Bosnia-Herzegovina — Yesterday and Last 2 Weeks

Now
35 °F

Passing clouds.


Feels Like: 35 °F
Forecast: 22 / 41 °F
Wind: No wind

Location: Banja Luka

Current Time: Dec 4, 2016 at 7:28:28 pm

Latest Report: Dec 4, 2016 at 7:00 pm


Visibility: 6 mi

Pressure: 30.44 "Hg

Humidity: 70%

Dew Point: 26 °F

Location of Banja LukaLocation

Past Weather in Banja Luka — Graph

°F

Banja Luka Temperature Yesterday

Maximum temperature yesterday: 47 °F (at 1:00 pm)
Minimum temperature yesterday: 30 °F (at 10:00 pm)
Average temperature yesterday: 41 °F

High & Low Weather Summary for the Past Weeks

 TemperatureHumidityPressure
High69 °F (Nov 20, 2:00 pm)96% (Nov 27, 8:00 am)30.58 "Hg (Nov 27, 8:00 am)
Low22 °F (Nov 30, 7:00 am)33% (Dec 1, 2:00 pm)29.90 "Hg (Nov 27, 3:00 pm)
Average45 °F76%30.18 "Hg
* Reported Nov 19 6:00 pm — Dec 4 6:00 pm, Banja Luka, Weather by CustomWeather, © 2016

Note: Actual official high and low records may vary slightly from our data, if they occured in-between our weather recording intervals... More about our weather records

Advertising

Banja Luka Weather History for the Previous 24 Hours

Scroll right to see more
 ConditionsComfort  
Time TempWeatherWind HumidityBarometerVisibility
6:00 pm
Sun, Dec 4
37 °FPassing clouds.1 mph69%30.42 "Hg6 mi
5:00 pm39 °FOvercast.No wind59%30.41 "Hg9 mi
4:00 pm40 °FOvercast.1 mph54%30.41 "Hg12 mi
3:00 pm41 °FOvercast.1 mph53%30.41 "Hg12 mi
2:00 pm41 °FOvercast.1 mph53%30.41 "Hg9 mi
1:00 pm40 °FPartly sunny.2 mph52%30.41 "Hg6 mi
12:00 pm38 °FPartly sunny.1 mph56%30.42 "Hg6 mi
11:00 am36 °FPartly sunny.1 mph69%30.42 "Hg12 mi
10:00 am36 °FPartly sunny.1 mph68%30.42 "Hg12 mi
9:00 am29 °FPartly sunny.No wind84%30.43 "Hg12 mi
8:00 am26 °FScattered clouds.No wind89%30.44 "Hg6 mi
7:00 am25 °FPassing clouds.No wind87%30.43 "Hg9 mi
6:00 am25 °FPassing clouds.No wind82%30.43 "Hg6 mi
4:00 am24 °FClear.No wind83%30.42 "Hg6 mi
1:00 am25 °FClear.No wind82%30.41 "Hg6 mi
10:00 pm
Sat, Dec 3
30 °FClear.No wind84%30.38 "Hg6 mi
7:00 pm31 °FClear.1 mph77%30.34 "Hg6 mi
Weather by CustomWeather, © 2016

See weather overviewHow to use our weather pages